Regional Weather Roundup
Issued by NWS Little Rock, AR

Home | Current Version | Previous Version | Graphics & Text | Print | Product List | Glossary On
Versions: 1 2 3 4 5 6 7 8 9 10 11 12 13 14 15 16 17 18 19 20 21 22 23 24 25 26 27 28 29 30 31 32 33 34 35 36 37 38 39 40 41 42 43 44 45 46 47 48 49 50
000
ASUS44 KLZK 221215
RWRLZK

WEATHER ROUNDUP FOR ARKANSAS
NATIONAL WEATHER SERVICE LITTLE ROCK AR
700 AM CDT SUN APR 22 2018

NOTE: "FAIR" INDICATES FEW OR NO CLOUDS BELOW 12,000 FEET WITH NO
SIGNIFICANT WEATHER AND/OR OBSTRUCTIONS TO VISIBILITY.

ARZ001-003-010-029-221300-
NORTHWEST ARKANSAS

CITY           SKY/WX    TMP DP  RH WIND       PRES   REMARKS
FAYETTEVILLE   LGT RAIN  52  52 100 W3        29.95R
6HR MIN TEMP:  52; 6HR MAX TEMP:  53; 6HR PCP:  0.37;

FORT SMITH     CLOUDY    52  52 100 W13       29.96S FOG
6HR MIN TEMP:  52; 6HR MAX TEMP:  57; 6HR PCP:  0.61;

HARRISON       RAIN      52  52 100 W5        29.97S FOG
6HR MIN TEMP:  53; 6HR MAX TEMP:  55; 6HR PCP:  0.49;

BENTONVILLE    LGT RAIN  51  50  96 CALM      29.97S FOG
6HR MIN TEMP:  51; 6HR MAX TEMP:  53; 6HR PCP:  0.27;

ROGERS         LGT RAIN  50  50 100 NW3       29.96S FOG
6HR MIN TEMP:  50; 6HR MAX TEMP:  53; 6HR PCP:  0.45;

SILOAM SPGS    LGT RAIN  51  51 100 W5        29.96F FOG
6HR MIN TEMP:  51; 6HR MAX TEMP:  53; 6HR PCP:  0.38;

HIGHFILL       LGT RAIN  52  52 100 NW3       29.95F FOG
SPRINGDALE     CLOUDY    52  52 100 CALM      29.96F FOG
$$

ARZ004-005-016-221300-
NORTH CENTRAL ARKANSAS

CITY           SKY/WX    TMP DP  RH WIND       PRES   REMARKS
BATESVILLE     CLOUDY    57  57 100 E8        29.96S
6HR MIN TEMP:  55; 6HR MAX TEMP:  58; 6HR PCP:  0.10;

MTN HOME       RAIN      54  54 100 E8        29.96R FOG
6HR MIN TEMP:  54; 6HR MAX TEMP:  57; 6HR PCP:  0.08;

$$

ARZ040-041-221300-
WEST CENTRAL ARKANSAS

CITY           SKY/WX    TMP DP  RH WIND       PRES   REMARKS
MENA           CLOUDY   N/A N/A N/A CALM      29.96S
MOUNT IDA      CLOUDY    57  57 100 CALM      29.91S
6HR MIN TEMP:  57; 6HR MAX TEMP:  58;

$$

ARZ009-017-025-026-028-221300-
NORTHEAST ARKANSAS

CITY           SKY/WX    TMP DP  RH WIND       PRES   REMARKS
CORNING        FAIR      55  55 100 E15       30.05S FOG
JONESBORO      LGT RAIN  57  57 100 E15       30.02F
6HR MIN TEMP:  56; 6HR MAX TEMP:  59; 6HR PCP:  0.42;

NEWPORT        MOCLDY    57  57 100 E25       29.93F
6HR MIN TEMP:  56; 6HR MAX TEMP:  60; 6HR PCP:  0.47;

WALNUT RIDGE   LGT RAIN  56  55  97 E18       30.00F
6HR MIN TEMP:  55; 6HR MAX TEMP:  57; 6HR PCP:  0.27;

BLYTHEVILLE    RAIN      56  53  90 E13       30.05S
6HR MIN TEMP:  56; 6HR MAX TEMP:  66; 6HR PCP:  0.43;

$$

ARZ022-023-033-042-044-221300-
CENTRAL ARKANSAS

CITY           SKY/WX    TMP DP  RH WIND       PRES   REMARKS
LITTLE ROCK    CLOUDY    58  58 100 CALM      29.93R
6HR MIN TEMP:  57; 6HR MAX TEMP:  58; 6HR PCP:  0.11;

N LITTLE ROCK    N/A     57  56  99 CALM      29.90R
6HR MIN TEMP:  56; 6HR MAX TEMP:  57;

JACKSONVILLE   CLOUDY    58  58 100 CALM      29.92R
6HR MIN TEMP:  57; 6HR MAX TEMP:  59; 6HR PCP:  0.08;

CONWAY         CLOUDY    59  59 100 CALM      29.92F
SEARCY         CLOUDY    60  60 100 E5        29.94F
6HR MIN TEMP:  57; 6HR MAX TEMP:  60; 6HR PCP:  0.24;

HOT SPRINGS    CLOUDY    59  59 100 CALM      29.93S
6HR MIN TEMP:  58; 6HR MAX TEMP:  59; 6HR PCP:  0.01;

RUSSELLVILLE   LGT RAIN  56  55  97 NE3       29.93F
6HR MIN TEMP:  55; 6HR MAX TEMP:  58; 6HR PCP:  0.04;

CLINTON        CLOUDY    59  57  94 CALM      29.94S
$$

ARZ036-221300-
EAST ARKANSAS

CITY           SKY/WX    TMP DP  RH WIND       PRES   REMARKS
WEST MEMPHIS   RAIN      58  58 100 E7        29.98F FOG
6HR MIN TEMP:  58; 6HR MAX TEMP:  66; 6HR PCP:  0.52;

$$

ARZ050-053-066-070-073-221300-
SOUTHWEST ARKANSAS

CITY           SKY/WX    TMP DP  RH WIND       PRES   REMARKS
ARKADELPHIA    LGT RAIN  57  57 100 CALM      29.94S FOG
6HR MIN TEMP:  58; 6HR MAX TEMP:  58; 6HR PCP:  0.03;

CAMDEN         CLOUDY    59  57  94 CALM      29.92F
TEXARKANA      CLOUDY    57  57 100 W9        29.95S FOG
6HR MIN TEMP:  56; 6HR MAX TEMP:  57;

EL DORADO      CLOUDY    59  59 100 CALM      29.94R
6HR MIN TEMP:  58; 6HR MAX TEMP:  59; 6HR PCP:  0.32;

DE QUEEN       CLOUDY    57  57 100 W5        29.94R
6HR MIN TEMP:  56; 6HR MAX TEMP:  57;

$$

ARZ056-057-069-221300-
SOUTHEAST ARKANSAS

CITY           SKY/WX    TMP DP  RH WIND       PRES   REMARKS
PINE BLUFF     CLOUDY    60  60 100 W6        29.93R
6HR MIN TEMP:  58; 6HR MAX TEMP:  60; 6HR PCP:  1.03;

STUTTGART      MOCLDY    61  59  94 CALM      29.92R
6HR MIN TEMP:  58; 6HR MAX TEMP:  61; 6HR PCP:  1.11;

MONTICELLO     LGT RAIN  60  58  92 E6        29.89F
6HR MIN TEMP:  58; 6HR MAX TEMP:  61; 6HR PCP:  0.70;


$$





USA.gov is the U.S. government's official web portal to all federal, state and local government web resources and services.